User: anonymous   Login
Location: Unspecified
(0.0000°N, 0.0000°E)
Time: 11:29:58
(UTC+00:00)
Language:

XW-2C - Orbit

View from above orbital plane
View from above orbital plane
View from above satellite
View from above satellite

Ground track
Ground track

The orbit data is extracted from the following two-line orbital elements,

1 40906U 15049H   19341.96814412  .00000319  00000-0  20129-4 0  9992
2 40906  97.4725 341.2551 0014033 327.5678 116.0811 15.15849713233094
Epoch (UTC): 07 December 2019 23:14:07
Eccentricity: 0.0014033
inclination: 97.4725°
perigee height: 509 km
apogee height: 528 km
right ascension of ascending node: 341.2551°
argument of perigee: 327.5678°
revolutions per day: 15.15849713
mean anomaly at epoch: 116.0811°
orbit number at epoch: 23309

The dashed part of the orbit path shows where the satellite is in the earth's shadow,  

DLR